• In Uzbekistan
  • List of Countries
  • For 7 days
  • Water Temperature
  • Satellite Maps
  • Weather Map
  • Weather Widgets
  • user-avatar
    Login

    Hourly Weather Sumgayit

    Today, 29 June, Thursday

    Time Temperature Precipitation Wind Pressure Humidity
    00:00 +27°C° 0 mm 2 mps 736 mmHg 36%
    01:00 +27°C° 0 mm 3 mps 736 mmHg 39%
    02:00 +26°C° 0 mm 3 mps 736 mmHg 41%
    03:00 +26°C° 0 mm 3 mps 736 mmHg 44%
    04:00 +26°C° 0 mm 3 mps 736 mmHg 43%
    05:00 +27°C° 0 mm 3 mps 736 mmHg 43%
    06:00 +27°C° 0 mm 3 mps 736 mmHg 42%
    07:00 +29°C° 0.1 mm 3 mps 736 mmHg 38%
    08:00 +30°C° 0.1 mm 4 mps 736 mmHg 34%
    09:00 +32°C° 0.1 mm 4 mps 736 mmHg 30%
    10:00 +33°C° 0.1 mm 4 mps 736 mmHg 28%
    11:00 +34°C° 0.1 mm 5 mps 736 mmHg 27%
    12:00 +35°C° 0.1 mm 5 mps 736 mmHg 25%
    13:00 +35°C° 0 mm 5 mps 736 mmHg 25%
    14:00 +35°C° 0 mm 6 mps 736 mmHg 24%
    15:00 +35°C° 0 mm 6 mps 735 mmHg 24%
    16:00 +34°C° 0 mm 6 mps 735 mmHg 26%
    17:00 +33°C° 0 mm 6 mps 735 mmHg 27%
    18:00 +32°C° 0 mm 6 mps 735 mmHg 29%
    19:00 +30°C° 0 mm 6 mps 735 mmHg 32%
    20:00 +29°C° 0 mm 6 mps 735 mmHg 34%
    21:00 +28°C° 0 mm 6 mps 735 mmHg 37%
    22:00 +28°C° 0 mm 6 mps 735 mmHg 39%
    23:00 +27°C° 0 mm 6 mps 735 mmHg 41%

    Tomorrow, 30 June, Friday

    Time Temperature Precipitation Wind Pressure Humidity
    00:00 +27°C° 0 mm 6 mps 735 mmHg 43%
    01:00 +27°C° 0 mm 5 mps 735 mmHg 44%
    02:00 +27°C° 0 mm 5 mps 735 mmHg 45%
    03:00 +26°C° 0 mm 5 mps 735 mmHg 47%
    04:00 +27°C° 0 mm 5 mps 735 mmHg 46%
    05:00 +27°C° 0 mm 6 mps 735 mmHg 45%
    06:00 +28°C° 0 mm 6 mps 735 mmHg 45%
    07:00 +29°C° 0 mm 7 mps 735 mmHg 38%
    08:00 +32°C° 0 mm 7 mps 736 mmHg 32%
    09:00 +34°C° 0 mm 8 mps 736 mmHg 26%
    10:00 +34°C° 0 mm 9 mps 736 mmHg 26%
    11:00 +35°C° 0 mm 9 mps 736 mmHg 26%
    12:00 +36°C° 0 mm 10 mps 736 mmHg 25%
    13:00 +36°C° 0 mm 10 mps 736 mmHg 26%
    14:00 +34°C° 0 mm 10 mps 736 mmHg 27%
    15:00 +34°C° 0 mm 11 mps 736 mmHg 28%
    16:00 +33°C° 0 mm 10 mps 736 mmHg 29%
    17:00 +33°C° 0 mm 10 mps 736 mmHg 30%
    18:00 +32°C° 0 mm 10 mps 736 mmHg 31%
    19:00 +31°C° 0 mm 9 mps 736 mmHg 33%
    20:00 +29°C° 0 mm 9 mps 736 mmHg 34%
    21:00 +29°C° 0 mm 8 mps 737 mmHg 36%
    22:00 +29°C° 0 mm 8 mps 737 mmHg 36%
    23:00 +28°C° 0 mm 7 mps 737 mmHg 37%

    Day after tomorrow, 1 July, Saturday

    Time Temperature Precipitation Wind Pressure Humidity
    00:00 +28°C° 0 mm 7 mps 737 mmHg 37%
    01:00 +28°C° 0 mm 7 mps 737 mmHg 39%
    02:00 +27°C° 0 mm 6 mps 737 mmHg 41%
    03:00 +27°C° 0 mm 6 mps 737 mmHg 42%
    04:00 +27°C° 0 mm 6 mps 737 mmHg 41%
    05:00 +28°C° 0 mm 7 mps 737 mmHg 41%
    06:00 +28°C° 0 mm 7 mps 738 mmHg 40%
    07:00 +31°C° 0 mm 8 mps 738 mmHg 37%
    08:00 +32°C° 0 mm 8 mps 738 mmHg 34%
    09:00 +34°C° 0 mm 9 mps 738 mmHg 32%
    10:00 +34°C° 0 mm 9 mps 738 mmHg 31%
    11:00 +35°C° 0 mm 9 mps 738 mmHg 30%
    12:00 +37°C° 0 mm 9 mps 738 mmHg 29%
    13:00 +35°C° 0 mm 9 mps 738 mmHg 29%
    14:00 +35°C° 0 mm 9 mps 738 mmHg 29%
    15:00 +35°C° 0 mm 9 mps 737 mmHg 30%
    16:00 +34°C° 0 mm 8 mps 737 mmHg 31%
    17:00 +34°C° 0 mm 8 mps 737 mmHg 32%
    18:00 +33°C° 0 mm 7 mps 737 mmHg 33%
    19:00 +32°C° 0 mm 6 mps 737 mmHg 36%
    20:00 +30°C° 0 mm 6 mps 738 mmHg 38%
    21:00 +29°C° 0 mm 5 mps 738 mmHg 41%
    22:00 +28°C° 0 mm 5 mps 738 mmHg 41%
    23:00 +28°C° 0 mm 4 mps 738 mmHg 42%

    2 July, Sunday

    Time Temperature Precipitation Wind Pressure Humidity
    00:00 +27°C° 0 mm 4 mps 737 mmHg 42%
    01:00 +27°C° 0 mm 3 mps 737 mmHg 43%
    02:00 +26°C° 0 mm 3 mps 737 mmHg 43%
    03:00 +26°C° 0 mm 3 mps 737 mmHg 44%
    04:00 +27°C° 0 mm 3 mps 737 mmHg 41%
    05:00 +28°C° 0 mm 3 mps 737 mmHg 38%
    06:00 +29°C° 0 mm 3 mps 737 mmHg 35%
    07:00 +30°C° 0 mm 3 mps 737 mmHg 31%
    08:00 +33°C° 0 mm 3 mps 737 mmHg 27%
    09:00 +35°C° 0 mm 3 mps 737 mmHg 23%
    10:00 +35°C° 0 mm 4 mps 737 mmHg 23%
    11:00 +36°C° 0 mm 4 mps 737 mmHg 22%
    12:00 +37°C° 0 mm 4 mps 737 mmHg 22%
    13:00 +37°C° 0 mm 4 mps 736 mmHg 22%
    14:00 +37°C° 0 mm 4 mps 736 mmHg 23%
    15:00 +37°C° 0 mm 4 mps 735 mmHg 23%
    16:00 +37°C° 0 mm 4 mps 735 mmHg 25%
    17:00 +36°C° 0 mm 4 mps 735 mmHg 26%
    18:00 +35°C° 0 mm 3 mps 735 mmHg 28%
    19:00 +34°C° 0 mm 3 mps 735 mmHg 32%
    20:00 +31°C° 0 mm 2 mps 735 mmHg 35%
    21:00 +30°C° 0 mm 2 mps 735 mmHg 39%
    22:00 +30°C° 0 mm 2 mps 735 mmHg 40%
    23:00 +29°C° 0 mm 2 mps 734 mmHg 41%

    3 July, Monday

    Time Temperature Precipitation Wind Pressure Humidity
    00:00 +29°C° 0 mm 2 mps 734 mmHg 42%
    01:00 +28°C° 0 mm 2 mps 734 mmHg 42%
    02:00 +28°C° 0 mm 2 mps 734 mmHg 42%
    03:00 +28°C° 0 mm 2 mps 733 mmHg 42%
    04:00 +28°C° 0 mm 2 mps 734 mmHg 42%
    05:00 +29°C° 0 mm 2 mps 734 mmHg 43%
    06:00 +29°C° 0 mm 3 mps 734 mmHg 43%
    07:00 +31°C° 0 mm 3 mps 734 mmHg 39%
    08:00 +33°C° 0 mm 3 mps 734 mmHg 35%
    09:00 +35°C° 0 mm 4 mps 734 mmHg 31%
    10:00 +36°C° 0 mm 4 mps 734 mmHg 29%
    11:00 +37°C° 0 mm 5 mps 733 mmHg 27%
    12:00 +39°C° 0 mm 5 mps 733 mmHg 25%
    13:00 +39°C° 0 mm 5 mps 733 mmHg 25%
    14:00 +40°C° 0 mm 6 mps 732 mmHg 25%
    15:00 +40°C° 0 mm 6 mps 732 mmHg 25%
    16:00 +39°C° 0 mm 5 mps 732 mmHg 27%
    17:00 +36°C° 0 mm 5 mps 732 mmHg 29%
    18:00 +35°C° 0 mm 5 mps 731 mmHg 31%
    19:00 +34°C° 0 mm 4 mps 732 mmHg 34%
    20:00 +33°C° 0 mm 3 mps 732 mmHg 37%
    21:00 +31°C° 0 mm 2 mps 732 mmHg 40%
    22:00 +30°C° 0 mm 2 mps 732 mmHg 40%
    23:00 +30°C° 0 mm 2 mps 732 mmHg 40%

    4 July, Tuesday

    Time Temperature Precipitation Wind Pressure Humidity
    00:00 +30°C° 0 mm 1 mps 732 mmHg 40%
    01:00 +29°C° 0 mm 1 mps 732 mmHg 40%
    02:00 +29°C° 0 mm 1 mps 731 mmHg 40%
    03:00 +28°C° 0 mm 1 mps 731 mmHg 40%
    04:00 +29°C° 0 mm 1 mps 731 mmHg 39%
    05:00 +30°C° 0 mm 2 mps 732 mmHg 38%
    06:00 +30°C° 0 mm 2 mps 732 mmHg 36%
    07:00 +32°C° 0 mm 2 mps 732 mmHg 33%
    08:00 +35°C° 0 mm 2 mps 732 mmHg 29%
    09:00 +36°C° 0 mm 3 mps 732 mmHg 26%
    10:00 +37°C° 0 mm 3 mps 732 mmHg 24%
    11:00 +40°C° 0 mm 4 mps 731 mmHg 22%
    12:00 +41°C° 0 mm 4 mps 731 mmHg 20%
    13:00 +41°C° 0 mm 4 mps 731 mmHg 20%
    14:00 +41°C° 0 mm 5 mps 731 mmHg 20%
    15:00 +41°C° 0 mm 5 mps 730 mmHg 20%
    16:00 +40°C° 0 mm 5 mps 730 mmHg 22%
    17:00 +38°C° 0 mm 4 mps 730 mmHg 23%
    18:00 +37°C° 0 mm 4 mps 730 mmHg 24%
    19:00 +36°C° 0 mm 4 mps 730 mmHg 28%
    20:00 +34°C° 0 mm 3 mps 730 mmHg 31%
    21:00 +32°C° 0 mm 2 mps 731 mmHg 34%
    22:00 +31°C° 0 mm 2 mps 730 mmHg 35%
    23:00 +31°C° 0 mm 2 mps 730 mmHg 36%
    Show more